Orbital Elements at Epoch 2459000.5 (2020-May-31.0) TDB
Reference: JPL 34 (heliocentric ecliptic J2000)
Element | Value | Uncertainty (1-sigma) | Units |
e | .2004616551118807 | 3.7099e-08 | |
a | 2.750980158945317 | 1.1928e-08 | au |
q | 2.199514123103194 | 1.0123e-07 | au |
i | 9.554090834669656 | 5.8444e-06 | deg |
node | 2.549021939416059 | 2.3054e-05 | deg |
peri | 308.1185242815202 | 2.6862e-05 | deg |
M | 21.81408982585178 | 1.369e-05 | deg |
tp | 2458899.513293101678 (2020-Feb-20.01329310) | 6.3229e-05 | TDB |
period | 1666.593232797248 4.56 | 1.0839e-05 2.968e-08 | d yr |
n | .2160095174488186 | 1.4049e-09 | deg/d |
Q | 3.30244619478744 | 1.4319e-08 | au |
|
| | Orbit Determination Parameters
Additional Information
|